EW5295 Weather Reports


time (UTC)temp
F
wind
direction
speed
knots
gust
knots
rain 1hr
in
rain 24hr
in
rain mn
in
humidity
%
barometer
mb
20260901114533 55 146 0.0 0.0 0.00 0.00 0.00 92 1009.8
20260901113020 54 146 0.0 0.0 0.00 0.00 0.00 93 1009.8
20260901111519 54 146 0.0 0.0 0.00 0.00 0.00 92 1009.7
20260901110016 55 146 0.0 0.0 0.00 0.00 0.00 91 1009.5
20260901104516 55 146 0.0 0.0 0.00 0.00 0.00 91 1009.5
20260901103013 55 146 0.0 0.9 0.00 0.00 0.00 91 1009.4
20260901101526 55 161 0.0 0.0 0.00 0.00 0.00 90 1009.4
20260901100010 55 162 0.0 0.9 0.00 0.00 0.00 90 1009.4
20260901094509 55 156 0.0 0.0 0.00 0.00 0.00 89 1009.3
20260901093049 56 156 0.0 0.0 0.00 0.00 0.00 89 1009.2
20260901091555 56 156 0.0 0.0 0.00 0.00 0.00 88 1009.0
20260901090028 56 156 0.0 0.0 0.00 0.00 0.00 88 1008.8
20260901084536 57 156 0.0 0.0 0.00 0.00 0.00 88 1008.9
20260901083014 57 157 0.0 0.0 0.00 0.00 0.00 87 1008.9
20260901081513 57 157 0.0 0.0 0.00 0.00 0.00 87 1008.9
20260901080016 58 158 0.0 0.0 0.00 0.00 0.00 86 1008.9
20260901074506 58 148 0.0 0.9 0.00 0.00 0.00 84 1008.9
20260901073002 59 163 0.0 0.0 0.00 0.00 0.00 82 1008.8
20260901071559 60 163 0.0 0.0 0.00 0.00 0.00 81 1008.7
20260901070114 61 163 0.0 0.0 0.00 0.00 0.00 78 1008.5
20260901064604 62 163 0.0 0.0 0.00 0.00 0.00 76 1008.3
20260901063051 63 163 0.0 0.0 0.00 0.00 0.00 74 1008.1
20260901061529 64 161 0.0 0.0 0.00 0.00 0.00 73 1007.9
20260901060025 65 161 0.0 0.0 0.00 0.00 0.00 72 1007.9
20260901054522 66 161 0.0 0.0 0.00 0.00 0.00 70 1007.7
20260901053023 67 165 0.0 0.0 0.00 0.00 0.00 68 1007.4
20260901051518 68 146 0.0 1.7 0.00 0.00 0.00 68 1007.5
20260901050018 68 178 0.0 0.9 0.00 0.00 0.00 67 1007.5
20260901044515 69 130 0.0 0.9 0.00 0.00 0.00 66 1007.5
20260901043025 69 117 0.0 0.9 0.00 0.00 0.00 66 1007.3
20260901041515 70 191 0.0 0.0 0.00 0.00 0.00 65 1007.0
20260901040012 71 150 0.0 0.0 0.00 0.00 0.00 60 1006.9
20260901034509 72 150 0.0 0.0 0.00 0.00 0.00 54 1006.7
20260901033008 71 150 0.0 0.0 0.00 0.00 0.00 56 1006.4
20260901031506 71 150 0.0 0.0 0.00 0.00 0.00 55 1006.1
20260901030043 72 150 0.0 0.0 0.00 0.00 0.00 53 1006.0
20260901024548 73 150 0.0 0.0 0.00 0.00 0.00 52 1006.1
20260901023027 75 150 0.0 0.0 0.00 0.00 0.00 51 1006.1
20260901021527 76 150 0.0 0.0 0.00 0.00 0.00 49 1006.1
20260901020018 77 150 0.0 0.0 0.00 0.00 0.00 47 1006.2
20260901014515 78 150 0.0 0.9 0.00 0.00 0.00 46 1006.2
20260901013013 79 161 0.0 0.0 0.00 0.00 0.00 45 1006.1
20260901011522 79 129 0.0 0.0 0.00 0.00 0.00 45 1006.2
20260901010010 80 150 0.0 0.9 0.00 0.00 0.00 43 1006.2
20260901004509 82 132 0.0 0.9 0.00 0.00 0.00 39 1006.3
20260901003051 82 132 0.0 0.9 0.00 0.00 0.00 38 1006.3
20260901001551 82 132 0.0 0.9 0.00 0.00 0.00 38 1006.4
20260901000037 82 161 0.0 0.9 0.00 0.00 0.00 39 1006.4
20260831234533 82 167 0.0 0.9 0.00 0.00 0.00 37 1006.5
20260831233011 82 138 0.0 0.9 0.00 0.00 0.00 36 1006.6
20260831231519 81 167 0.0 0.0 0.00 0.00 0.00 36 1006.6
20260831230056 82 212 0.0 0.9 0.00 0.00 0.00 39 1006.7
20260831224619 81 161 0.0 1.7 0.00 0.00 0.00 39 1006.9
20260831223037 81 232 0.0 0.9 0.00 0.00 0.00 40 1007.0
20260831221547 81 154 0.0 0.9 0.00 0.00 0.00 39 1007.1
20260831220032 80 161 0.0 0.0 0.00 0.00 0.00 44 1007.3
20260831214535 80 149 0.0 0.9 0.00 0.00 0.00 41 1007.3
20260831213026 79 148 0.0 0.9 0.00 0.00 0.00 45 1007.5
20260831211523 79 150 0.0 0.0 0.00 0.00 0.00 47 1007.7
20260831210020 79 184 0.0 0.9 0.00 0.00 0.00 46 1007.8
20260831204520 79 130 0.0 1.7 0.00 0.00 0.00 47 1007.9
20260831203008 78 131 0.0 0.9 0.00 0.00 0.00 46 1008.1
20260831201502 76 153 0.0 0.9 0.00 0.00 0.00 46 1008.3
20260831200057 75 323 0.0 2.6 0.00 0.00 0.00 49 1008.4
20260831194600 73 302 0.0 1.7 0.00 0.00 0.00 49 1008.7
20260831193057 73 176 0.0 2.6 0.00 0.00 0.00 51 1008.7
20260831191551 72 186 0.0 2.6 0.00 0.00 0.00 52 1009.0
20260831190046 71 276 0.0 1.7 0.00 0.00 0.00 55 1009.2
20260831184542 70 155 0.0 0.9 0.00 0.00 0.00 56 1009.4
20260831183041 70 184 0.0 1.7 0.00 0.00 0.00 57 1009.5
20260831181527 68 148 0.0 0.9 0.00 0.00 0.00 61 1009.7
20260831180032 68 191 0.0 1.7 0.00 0.00 0.00 61 1009.9
20260831174526 67 162 0.0 1.7 0.00 0.00 0.00 64 1010.0
20260831173035 66 161 0.0 0.9 0.00 0.00 0.00 65 1010.1
20260831171523 65 203 0.0 0.9 0.00 0.00 0.00 68 1010.2
20260831170022 64 146 0.0 0.9 0.00 0.00 0.00 70 1010.2
20260831164522 63 129 0.0 1.7 0.00 0.00 0.00 72 1010.4
20260831163020 61 151 0.0 0.9 0.00 0.00 0.00 76 1010.4
20260831161508 60 188 0.0 1.7 0.00 0.00 0.00 78 1010.5
20260831160013 59 159 0.0 1.7 0.00 0.00 0.00 79 1010.6
20260831154507 58 142 0.0 1.7 0.00 0.00 0.00 81 1010.6
20260831153006 57 179 0.0 0.9 0.00 0.00 0.00 83 1010.6
20260831151504 56 176 0.0 0.9 0.00 0.00 0.00 85 1010.7
20260831150007 55 163 0.0 0.9 0.00 0.00 0.00 87 1010.8
20260831144502 54 158 0.0 0.0 0.00 0.00 0.00 89 1010.8
20260831143113 0 0.0 0.0 0.00 0.00 0.00 1010.8
20260831141537 0 0.0 0.0 0.00 0.00 0.00 1010.8
20260831140035 0 0.0 0.0 0.00 0.00 0.00 1010.9
20260831134521 0 0.0 0.0 0.00 0.00 0.00 1010.8
20260831133013 0 0.0 0.0 0.00 0.00 0.00 1011.0
20260831131508 0 0.0 0.0 0.00 0.00 0.00 1011.0
20260831130004 0 0.0 0.0 0.00 0.00 0.00 1011.1
20260831124604 0 0.0 0.0 0.00 0.00 0.00 1011.1
20260831123059 53 153 0.0 0.0 0.00 0.00 0.00 88 1011.2
20260831121604 54 158 0.0 0.0 0.00 0.00 0.00 88 1011.3
20260831120054 54 158 0.0 0.0 0.00 0.00 0.00 88 1011.4